Weather History for Liberia, Costa Rica

Change the Weather History Date:

Saturday, March 22, 2014

  Actual Average Record
Temperature  
Mean Temperature 83 °F -  
Max Temperature 95 °F 93 °F 98 °F (2013)
Min Temperature 71 °F 76 °F 66 °F (2012)
Cooling Degree Days 18    
Growing Degree Days 33 (Base 50)    
Moisture  
Dew Point 62 °F    
Average Humidity 41    
Maximum Humidity 69    
Minimum Humidity 24    
Precipitation  
Precipitation 0.00 in - - ()
Sea Level Pressure  
Sea Level Pressure 29.83 in    
Wind  
Wind Speed 11 mph ()    
Max Wind Speed 18 mph    
Max Gust Speed 30 mph    
Visibility 12.0 miles    
Events      
Averages and records for this station are not official NWS values.
T = Trace of Precipitation, MM = Missing Value Source: Averaged Metar Reports

Daily Weather History Graph

Daily Weather History Graph

Search for Another Location

Airport:

Trip Planner

Search our weather history database for the weather conditions in past years. The results will help you decide how hot, cold, wet, or windy it might be!

Date:

Astronomy

Mar. 22, 2014 Rise Set
Actual Time 5:45 AM CST 5:52 PM CST
Civil Twilight 5:24 AM CST 6:14 PM CST
Nautical Twilight 4:59 AM CST 6:38 PM CST
Astronomical Twilight 4:35 AM CST 7:02 PM CST
Moon 11:18 PM CST (3/22) 10:18 AM CST (3/22)
Length of Visible Light 12h 49m
Length of Day
12h 07m
Waning Gibbous, 65% of the Moon is Illuminated
Mar 22
Waning Gibbous
Mar 23
Last Quarter
Mar 30
New
Apr 7
First Quarter
Apr 15
Full

Hourly Weather History & Observations

Time (CST) Temp. Heat Index Dew Point Humidity Pressure Visibility Wind Dir Wind Speed Gust Speed Precip Events Conditions
6:00 AM 77 °F - 62 °F 50% 29.85 in 12 mi East 5.8 mph - -  
6:00 AM 77.0 °F - 62.6 °F 61% 29.85 in - East 5.8 mph - N/A   Clear
7:00 AM 73.4 °F - 62.6 °F 69% 29.87 in - NE 6.9 mph - N/A   Clear
8:00 AM 84.2 °F 84.4 °F 60.8 °F 45% 29.89 in - NE 4.6 mph - N/A   Clear
9:00 AM 89 °F - 61 °F 29% 29.89 in 12 mi East 17.3 mph - -  
9:00 AM 89.6 °F 89.5 °F 60.8 °F 38% 29.88 in - East 17.3 mph 28.8 mph N/A   Clear
10:00 AM 91.4 °F 93.2 °F 64.4 °F 41% 29.89 in - East 18.4 mph 29.9 mph N/A   Clear
11:00 AM 91.4 °F 92.1 °F 62.6 °F 38% 29.87 in - East 13.8 mph 25.3 mph N/A   Clear
12:00 PM 94 °F - 61 °F 24% 29.85 in 12 mi East 15.0 mph - -  
12:00 PM 95.0 °F 95.2 °F 60.8 °F 32% 29.85 in - East 15.0 mph 29.9 mph N/A   Clear
1:00 PM 95.0 °F 95.2 °F 60.8 °F 32% 29.82 in - ENE 13.8 mph 25.3 mph N/A   Clear
2:05 PM 95.0 °F 96.0 °F 62.6 °F 34% 29.79 in - East 17.3 mph - N/A   Clear
3:00 PM 95 °F - 64 °F 26% 29.78 in 12 mi East 16.1 mph - -  
3:00 PM 95.0 °F 97.0 °F 64.4 °F 36% 29.78 in - ENE 16.1 mph - N/A   Clear
4:00 PM 93.2 °F 93.3 °F 60.8 °F 34% 29.78 in - ENE 16.1 mph 27.6 mph N/A   Clear
5:00 PM 89.6 °F 90.1 °F 62.6 °F 40% 29.79 in - East 17.3 mph - N/A   Clear
6:00 PM 87 °F - 63 °F 35% 29.82 in 12 mi East 15.0 mph - -  
6:00 PM 86.0 °F 87.3 °F 64.4 °F 48% 29.80 in - ENE 18.4 mph - N/A   Clear
7:00 PM 84.2 °F 85.6 °F 64.4 °F 51% 29.82 in - ENE 17.3 mph - N/A   Clear
8:00 PM 82.4 °F 83.9 °F 64.4 °F 54% 29.83 in - East 15.0 mph - N/A   Clear